Location: *
(48.5459°S, 169.1482°W)
Time: 19:43:57
(UTC+00:00)

Daily predictions for brighter satellites

Satellite Brightness Start Highest point End
(mag) Time Altitude Azimuth Time Altitude Azimuth Time Altitude Azimuth
CZ-4C R/B 4.2 13:25:54 34° E 13:25:54 34° E 13:30:39 10° SE
CENTAUR R/B 4.2 13:44:15 31° ENE 13:44:15 31° ENE 13:50:06 10° ESE
SL-16 R/B 4.2 13:51:43 10° SE 13:56:50 26° E 13:58:08 24° ENE
USA 234 4.0 14:05:11 10° ESE 14:10:50 46° S 14:10:50 46° S
H-2A R/B 4.0 14:15:19 24° S 14:15:19 24° S 14:17:36 10° S
Cosmos 2263 Rocket 3.7 14:34:57 28° S 14:34:57 28° S 14:37:51 10° SSE
Cosmos 1655 Rocket 4.2 14:44:13 10° S 14:50:41 71° E 14:56:59 10° NNE
Cosmos 1844 4.1 14:52:46 60° ENE 14:52:59 60° ENE 14:58:39 10° SE
Cosmos 2266 Rocket 4.3 14:47:53 10° S 14:53:04 59° SSW 14:53:04 59° SSW
Meteor 1-13 Rocket 4.4 14:49:17 10° S 14:54:53 66° ESE 15:00:23 10° NNE
CZ-2C R/B 3.3 14:49:49 10° S 14:53:59 50° S 14:53:59 50° S
ARGOS 3.8 14:52:45 10° NE 14:58:00 54° ESE 15:03:19 10° S
NOSS 3-3 (C) 4.5 14:55:33 28° SSW 14:58:56 54° SE 15:04:32 10° ENE
ARIANE 5 R/B 2.8 14:57:12 10° NNE 15:02:18 65° ESE 15:07:24 10° S
BREEZE-M DEB (TANK) 3.7 15:05:15 57° ESE 15:05:15 57° ESE 15:11:24 10° ESE
Meteor 1-14 Rocket 4.5 15:08:51 60° SSW 15:08:51 60° SSW 15:14:02 10° S
Sich 1 3.7 15:08:53 53° ESE 15:08:53 53° ESE 15:12:40 10° SSE
CZ-4C R/B 2.9 15:11:01 58° W 15:12:24 68° SW 15:19:16 10° SE
Cosmos 2227 Rocket 4.3 15:13:35 14° SSW 15:13:35 14° SSW 15:16:01 10° S
Cosmos 1743 Rocket 4.0 15:14:19 61° ESE 15:14:19 61° ESE 15:18:22 10° SSE
UNK 3.9 15:11:04 10° SSE 15:15:29 72° ESE 15:15:29 72° ESE
Cosmos 1844 Rocket 2.5 15:19:02 78° W 15:19:15 80° WSW 15:24:57 10° SSE
NOAA 12 4.3 15:18:21 10° NNE 15:23:35 71° ESE 15:28:54 10° S
Cosmos 1733 4.2 15:25:55 42° SE 15:25:55 42° SE 15:28:37 10° SSE
Cosmos 1125 Rocket 4.5 15:27:09 34° SSW 15:27:09 34° SSW 15:31:02 10° S
Cosmos 967 Rocket 4.3 15:25:52 59° WNW 15:27:06 79° SW 15:33:25 10° SE
Cosmos 220 Rocket 4.1 15:27:45 66° ENE 15:27:45 66° ENE 15:31:31 10° NNE
Lacrosse 5 rocket 3.9 15:32:47 12° NNE 15:32:47 12° NNE 15:33:10 10° NNE
ATLAS CENTAUR R/B 2.3 15:31:16 40° S 15:31:16 40° S 15:34:37 10° SSE
CENTAUR R/B 2.8 15:31:26 42° NW 15:34:23 79° SW 15:41:05 10° SE
COSMOS 2455 4.4 15:33:57 21° SW 15:34:34 21° SSW 15:39:05 10° SSE
SeaSat 1 2.4 15:29:41 10° NNE 15:34:39 87° SE 15:38:38 16° SSW
SL-06 R/B (2) 4.5 15:33:27 38° SW 15:35:22 79° NW 15:44:55 10° NE
Cosmos 489 Rocket 4.4 15:32:30 31° NNW 15:35:41 87° ENE 15:42:01 10° SSE
Cosmos 1805 4.2 15:37:05 17° NNE 15:39:44 46° E 15:43:25 10° SSE
SL-16 R/B 2.5 15:34:41 10° S 15:40:52 64° WSW 15:43:14 38° NW
CZ-2D R/B 3.5 15:36:49 10° NNE 15:41:12 84° ESE 15:45:38 10° SSW
BREEZE-M DEB (TANK) 4.2 15:36:25 29° WSW 15:41:37 62° NW 15:45:34 10° NE
IRS-1C 4.1 15:36:36 10° N 15:41:53 57° WNW 15:47:14 10° SSW
BREEZE-M DEB (TANK) 2.7 15:43:20 73° N 15:43:20 73° N 15:49:06 10° ENE
Meteor 1-11 Rocket 3.6 15:41:39 41° NW 15:43:36 67° WSW 15:49:24 10° S
DEBRIS 2.6 15:44:47 76° SSW 15:44:52 77° S 15:51:03 10° E
SL-19 R/B 4.0 15:39:44 10° N 15:45:01 72° WNW 15:50:36 10° SSW
PSLV R/B 4.3 15:42:36 10° NE 15:46:38 50° ESE 15:50:44 10° S
Cosmos 1862 Rocket 4.1 15:44:38 10° S 15:49:10 61° ESE 15:53:38 10° NNE
H-2A R/B 4.1 15:55:54 13° SW 15:55:54 13° SW 15:56:40 10° SSW
USA 234 4.0 15:47:31 10° E 15:53:45 45° S 15:58:09 19° SW
SJ-12 3.7 15:50:43 10° N 15:54:44 78° WNW 15:58:49 10° SSW
SL-08 RB Rocket 3.6 15:52:08 10° N 15:56:41 68° WNW 16:01:15 10° SSW
Cosmos 1833 Rocket 3.1 15:52:16 10° SSW 15:57:58 66° ESE 16:03:37 10° NE
Meteor 2-9 Rocket 4.2 15:56:11 17° NNW 16:00:41 65° WSW 16:06:38 10° S
Okean 1-7 4.3 16:00:05 10° S 16:04:17 42° ESE 16:08:23 10° NNE
NOSS 3-2 (C) 4.4 15:55:48 10° NNW 16:04:43 73° NE 16:12:26 10° SE
IRS-P3 4.4 16:00:52 10° N 16:06:00 45° W 16:11:13 10° SSW
BREEZE-M R/B 2.7 16:06:25 58° N 16:06:25 58° N 16:09:34 10° ENE
SL-08 R/B 4.4 16:00:45 10° S 16:07:01 86° W 16:13:18 10° N
Cosmos 1553 Rocket 3.9 16:04:19 10° N 16:10:27 89° E 16:16:40 10° S
Nadezhda 2 Rocket 4.4 16:04:49 10° SSW 16:11:12 69° W 16:17:23 10° N
Cosmos 2082 Rocket 3.9 16:06:51 10° SSW 16:11:54 31° SE 16:16:54 10° ENE
Cosmos 1805 Rocket 4.4 16:17:14 30° WSW 16:17:14 30° WSW 16:21:11 10° S
Cosmos 1400 Rocket 2.6 16:13:44 10° SSW 16:17:39 85° W 16:21:29 10° N
Cosmos 2263 Rocket 4.1 16:16:39 12° SW 16:17:55 13° SSW 16:20:27 10° S
Cosmos 2228 Rocket 3.3 16:13:48 10° SSW 16:18:19 50° W 16:22:45 10° NNW
Cosmos 1766 4.5 16:15:10 10° NNE 16:18:45 42° E 16:22:25 10° SSE
Cosmos 1975 2.7 16:15:06 10° NNW 16:19:05 74° W 16:23:09 10° S
Cosmos 2278 Rocket 3.9 16:15:05 10° NNE 16:20:08 34° ENE 16:25:13 10° SE
Okean 2 4.3 16:16:25 10° S 16:20:28 50° ESE 16:24:28 10° NNE
Cosmos 1707 Rocket 3.6 16:16:12 10° SSW 16:20:37 55° W 16:24:56 10° N
Cosmos 1666 Rocket 3.4 16:16:17 10° NNW 16:20:41 72° W 16:25:06 10° S
BREEZE M DEB (TANK) 2.9 16:19:35 27° NW 16:21:06 56° NNE 16:27:35 10° ESE
Cosmos 2251 Rocket 4.0 16:15:49 10° SSW 16:21:15 65° ESE 16:26:35 10° NNE
EXPRESS MD2 3.3 16:22:44 28° N 16:22:44 28° N 16:24:20 10° NE
BREEZE-M DEB (TANK) 2.5 16:28:07 34° WSW 16:29:11 85° NNW 16:31:35 10° ENE
CZ-2D R/B 3.2 16:26:51 10° N 16:30:30 53° W 16:34:12 10° SSW
SL-14 R/B 3.5 16:28:48 10° SSW 16:32:31 42° W 16:36:13 10° NNW
Cosmos 1340 2.3 16:30:41 10° NNW 16:34:12 81° WSW 16:37:45 10° S
CZ-2C R/B 4.4 16:31:43 10° SSW 16:34:49 15° SW 16:35:28 15° WSW
ARGOS 4.1 16:34:09 10° NNW 16:38:34 25° W 16:43:02 10° SW
Timation 2 Rocket 4.3 16:35:57 17° WNW 16:40:15 41° SW 16:45:59 10° SSE
ARIANE 5 R/B 3.7 16:38:05 10° NW 16:41:48 20° W 16:45:31 10° SW
Meteor 1-21 4.5 16:36:37 10° SSW 16:42:14 48° W 16:47:45 10° NNW
NOSS 3-3 (A) 4.3 16:37:06 10° SW 16:42:56 38° WNW 16:48:00 10° N
NOSS 3-2 (A) 4.3 16:36:28 14° WNW 16:43:51 54° SW 16:51:09 10° SE
Cosmos 192 4.4 16:42:30 10° NNW 16:47:29 86° ENE 16:52:32 10° SSE
Cosmos 1190 Rocket 4.5 16:43:35 10° SSW 16:48:53 66° ESE 16:54:04 10° NNE
NOSS 3-3 (C) 4.4 16:43:51 10° SW 16:49:33 36° WNW 16:54:31 10° N
Okean 3 3.8 16:46:51 10° SSW 16:50:55 43° W 16:54:58 10° NNW
Helios 1B rocket 2.3 16:48:46 10° NNE 16:52:44 88° E 16:56:45 10° SSW
CORIOLIS 4.2 16:48:00 10° N 16:53:27 71° WNW 16:58:57 10° SSW
Cosmos 1745 Rocket 4.0 16:47:24 10° SSW 16:53:45 64° W 16:59:58 10° N
Meteor 1-31 Rocket 2.9 16:51:18 10° NNE 16:55:03 77° ESE 16:58:50 10° S
DMSP B5D2-2 4.3 16:50:46 10° S 16:55:57 52° WSW 17:01:03 10° NW
USA 267 4.5 16:52:55 10° ESE 16:59:09 43° NE 17:05:20 10° NNW
Cosmos 1633 Rocket 3.6 16:55:23 10° NW 16:59:30 36° WSW 17:03:42 10° S
SAR-Lupe-2 4.0 16:57:01 10° NNE 17:00:37 67° ESE 17:04:16 10° S
Cosmos 1356 Rocket 3.7 16:57:03 10° SSW 17:01:10 47° W 17:05:11 10° N
CZ-4C R/B 3.8 16:56:10 12° WSW 17:02:00 29° SSW 17:07:30 10° SE
Aureole 2 4.1 16:59:16 10° NNW 17:02:11 78° ENE 17:05:12 10° SSE
USA 238 DEB 4.0 16:54:29 10° NW 17:02:24 89° NE 17:09:46 10° SE
USA 238 4.0 16:54:36 10° NW 17:02:31 88° NE 17:09:55 10° SE
Cosmos 1844 Rocket 4.2 17:00:43 12° W 17:04:05 19° SW 17:08:06 10° S
CZ-2C R/B 2.6 17:01:32 10° N 17:05:06 61° WNW 17:08:42 10° SSW
Cosmos 1607 3.9 17:00:06 10° SW 17:06:14 77° NW 17:12:26 10° NNE
Cosmos 1954 Rocket 4.4 17:01:15 10° SSW 17:06:29 68° ESE 17:11:39 10° NNE
ATLAS CENTAUR R/B 3.5 17:06:46 10° WSW 17:09:14 14° SSW 17:11:39 10° S
SL-24 DEB 4.4 17:06:09 10° NNW 17:10:40 53° W 17:15:15 10° SSW
COSMOS 2406 3.7 17:05:47 10° SSW 17:11:31 65° ESE 17:17:11 10° NE
Cosmos 1140 Rocket 4.1 17:08:03 10° SW 17:12:40 33° WNW 17:17:15 10° NNW
SeaSat 1 4.0 17:09:44 10° NW 17:12:41 16° WNW 17:15:38 10° WSW
YAOGAN 11 4.0 17:09:40 10° SSE 17:14:02 78° WSW 17:18:24 10° NNW
Cosmos 1703 Rocket 3.7 17:11:42 10° SSW 17:16:07 54° W 17:20:27 10° N
Cosmos 1818 3.9 17:14:04 10° SW 17:19:09 44° WNW 17:24:14 10° N
COSMO-SKYMED 1 3.4 17:15:02 10° SSE 17:19:26 59° E 17:23:46 10° N
Cosmos 1943 Rocket 3.0 17:16:52 10° N 17:22:24 59° ENE 17:27:55 10° SE
Cosmos 1470 2.6 17:19:19 10° NNW 17:23:07 73° W 17:26:58 10° S
S3M 4.3 17:16:55 10° NNW 17:23:08 51° WSW 17:29:28 10° S
SL-16 R/B 4.1 17:19:59 10° SSW 17:23:18 15° SW 17:26:35 10° W
Cosmos 407 Rocket 4.0 17:18:57 10° SW 17:23:46 39° WNW 17:28:35 10° N
CENTAUR R/B 3.6 17:19:25 10° W 17:25:53 30° SSW 17:31:21 10° SE
